Weather in Field

Canada     51°23′53″N   116°29′32″W
temp.,
°C
wind,
m/s
gust,
m/s
humid.,
%
clouds,
%
prec.,
mm/h
press.,
hPa
HPBL,
m
16 april, fri
fri1623:00−9ne229013 0.0 103512
02:00−9ne22855 0.0 103512
05:00−10ne22842 0.0 103611
08:000ene11765 0.0 102860
11:00+3s009224 0.0 1025180
14:00+4ssw008922 0.0 1025365
17:00+4e008820 0.0 1025292
20:00−2ne11947 0.0 102810
17 april, sat
sat1723:00−6ne22858 0.0 103211
02:00−6ne22775 0.0 103211
05:00−7ne227623 0.0 103211
08:00+1ne01676 0.0 102556
11:00+4wsw116913 0.0 1023337
14:00+6wnw116512 0.0 1022779
17:00+5w216946 0.0 1021657
20:00−1n2294100 0.0 102512
18 april, sun
sun1823:00−2nne229260 0.0 102612
02:00−3ne229473 0.0 102621
05:00−2ne3396100 1.1 1025269
08:00−4ene4485100 3.3 1031613
11:00−4ne246490 4.3 10321230
14:00−1nne2350100 0.1 10301790
17:00−1nne234879 0.1 10291490
20:00−5ne227885 0.0 103121
19 april, mon
mon1923:00−6ene228637 0.0 103334
02:00−7ene21886 0.0 103439
05:00−8ne11885 0.0 103440
08:00−5ne11715 0.0 1032371
11:00−1wnw11575 0.0 1028928
14:00+1w225251 0.0 10251228
17:00+1w225220 0.0 10231150
20:00−3w11826 0.0 102610
20 april, tue
tue2023:00−4n11845 0.0 102611
02:00−4nne11855 0.0 102610
05:00−5nne118775 0.0 102510
08:00−1wsw11725 0.0 1022288
11:00+2wsw116221 0.0 1020890
14:00+4wsw215633 0.0 10171188
17:00+4w215842 0.0 10151106
20:00−1wnw11833 0.0 101810